Location: Maiden
(35.5760°N, 81.2120°W)
Time: 16:31:51
(UTC-04:00)

Vanguard 2 - Pass Details

Date: 10 August 2021
Orbit: 552 x 2938 km, 32.9° (Epoch: 20 September)

Event Time Altitude Azimuth Distance (km) Brightness Sun altitude
Exits shadow 04:51:23 57° 211° (SSW) 664 6.8 -20.2°
Maximum altitude 04:51:47 61° 180° (S) 635 6.9 -20.2°
Drops below altitude 10° 04:55:41 10° 99° (E) 1,837 10.1 -19.5°
Sets 04:57:59 0° 96° (E) 2,810 11.2 -19.2°
